Location: Sungai Apap
(2.6167°N, 113.3833°E)
Time: 16:32:16
(UTC+00:00)

Cosmos 1943 Rocket - Pass Details

Date: 25 May 2024
Orbit: 810 x 844 km, 71.0° (Epoch: 12 June)

Event Time Altitude Azimuth Distance (km) Brightness Sun altitude
Rises 11:57:40 0° 3° (N) 3,367 5.6 -20.8°
Reaches altitude 10° 12:00:23 10° 13° (NNE) 2,430 4.7 -21.5°
Enters shadow 12:04:25 29° 58° (ENE) 1,460 3.1 -22.4°
